METEOR 1-17 DEB, 57726

Orbit data source: Space-Track

METEOR 1-17 DEB, 57726 is space debris in LEO originally from a Commonwealth of Independent States-origin launch on Wed, 24 Apr 1974 UTC launched from the Plesetsk Missile And Space Complex (PKMTR). Debris objects in space refer to the collection of defunct objects orbiting the Earth. Examples of debris include non-operational satellites, rocket bodies, and fragments generated from explosions, collisions, or faulty payload assembly.

Loading next visibility...
Identifier
57726, 1974-025M
Orbit
LEO
Country
Flag of CISCIS
Related business
Manufacturer
VNIIEM
Mission
Spacecraft
Bus & Motor
Unknown
Mass
Unknown
Launch date (UTC)
1974-04-24 (52 years ago)
Launch vehicle
Unknown
Launch site
Plesetsk Missile And Space Complex (PKMTR)
Object type
Payload
Rocket body
Debris
Shape & HBR
Unknown shape, 0.1 m
Radar Cross Section
Medium (>0.1 m² and <1 m²)

Expand to show TLE details & history
Last TLE update: 4 days ago

TLE from 4 days ago
0 METEOR 1-17 DEB
1 57726U 74025M   26170.04953639  .00004421  00000-0  19643-2 0  9996
2 57726  81.2120 283.3433 0008339 248.0904 111.9388 14.22810048145314
Epoch: 2026-06-19T01:11Z
TLE epoch observation values (Epoch: 2026-06-19T01:11:19.944Z)
Latitude
0.00004°
Longitude
-1.77388°
Altitude
821.027 km
Speed
7.441 km/s
True Right ascension
18h 53m 22s
True Declination
0° 00' 00"
Sunlit
Object was in full shadow at epoch
Visualization orbit readout
Latitude
Unknown
Longitude
Unknown
Altitude
Unknown
Speed
Unknown
Apparent Right ascension
Unknown
Apparent Declination
Unknown
Sunlit
N/A
Visualization observer readout
Local Sidereal Time
00:50:17
Azimuth
Unknown
Elevation
Unknown
Doppler factor
Unknown
Orbital elements
Apogee altitude
819.02 km
Perigee altitude
807.027 km
Semi-major axis
7,191.161 km
Eccentricity
0.00083
Inclination
81.212°
RAAN
283.3433°
Arg. of periapsis
248.0904°
True anomaly
112.0274°
Mean anomaly
111.9388°
Eccentric anomaly
111.98311°
Mean motion
3.55914 °/min
Orbital period
101.15 mins
BSTAR
0.0019643
Loading maneuver chart data...
Computing Atmospheric mass density...
Loading historical data...
Loading historical data...
Loading historical data...
Loading historical data...
Loading historical data...
Loading historical data...
Loading historical data...

Documentation

Showing up to 5 results
|